• In Netherlands
  • List of Countries
  • For 7 days
  • Water Temperature
  • Satellite Maps
  • Weather Map
  • Weather Widgets
  • user-avatar
    Login

    Hourly Weather Malanville

    Today, 23 May, Tuesday

    Time Temperature Precipitation Wind Pressure Humidity
    00:00 +35°C° 0 mm 4 mps 741 mmHg 50%
    01:00 +35°C° 0 mm 3 mps 741 mmHg 55%
    02:00 +34°C° 0 mm 3 mps 741 mmHg 59%
    03:00 +33°C° 0 mm 3 mps 740 mmHg 64%
    04:00 +33°C° 0 mm 3 mps 741 mmHg 64%
    05:00 +33°C° 0 mm 3 mps 741 mmHg 65%
    06:00 +33°C° 0 mm 3 mps 741 mmHg 62%
    07:00 +35°C° 0 mm 3 mps 742 mmHg 56%
    08:00 +37°C° 0 mm 3 mps 742 mmHg 49%
    09:00 +39°C° 0 mm 3 mps 742 mmHg 43%
    10:00 +41°C° 0 mm 2 mps 742 mmHg 36%
    11:00 +44°C° 0 mm 1 mps 742 mmHg 29%
    12:00 +46°C° 0 mm 1 mps 741 mmHg 21%
    13:00 +46°C° 0 mm 1 mps 741 mmHg 21%
    14:00 +45°C° 0 mm 1 mps 740 mmHg 21%
    15:00 +45°C° 0 mm 2 mps 740 mmHg 20%
    16:00 +43°C° 0 mm 2 mps 740 mmHg 22%
    17:00 +42°C° 0 mm 2 mps 740 mmHg 23%
    18:00 +41°C° 0 mm 1 mps 740 mmHg 25%
    19:00 +40°C° 0 mm 1 mps 740 mmHg 27%
    20:00 +39°C° 0 mm 1 mps 741 mmHg 29%
    21:00 +39°C° 0 mm 2 mps 741 mmHg 30%
    22:00 +38°C° 0 mm 2 mps 741 mmHg 32%
    23:00 +37°C° 0 mm 2 mps 741 mmHg 34%

    Tomorrow, 24 May, Wednesday

    Time Temperature Precipitation Wind Pressure Humidity
    00:00 +37°C° 0 mm 2 mps 741 mmHg 36%
    01:00 +36°C° 0 mm 2 mps 741 mmHg 39%
    02:00 +35°C° 0 mm 2 mps 740 mmHg 42%
    03:00 +35°C° 0 mm 3 mps 740 mmHg 45%
    04:00 +34°C° 0 mm 2 mps 740 mmHg 47%
    05:00 +34°C° 0 mm 2 mps 741 mmHg 49%
    06:00 +32°C° 0 mm 2 mps 741 mmHg 51%
    07:00 +35°C° 0 mm 3 mps 742 mmHg 47%
    08:00 +37°C° 0 mm 3 mps 742 mmHg 43%
    09:00 +39°C° 0 mm 3 mps 743 mmHg 39%
    10:00 +42°C° 0 mm 3 mps 742 mmHg 34%
    11:00 +43°C° 0 mm 2 mps 742 mmHg 29%
    12:00 +46°C° 0 mm 2 mps 742 mmHg 24%
    13:00 +45°C° 0 mm 1 mps 741 mmHg 22%
    14:00 +46°C° 0 mm 1 mps 740 mmHg 20%
    15:00 +46°C° 0 mm 1 mps 739 mmHg 17%
    16:00 +45°C° 0 mm 1 mps 739 mmHg 19%
    17:00 +43°C° 0 mm 1 mps 740 mmHg 22%
    18:00 +41°C° 0 mm 1 mps 740 mmHg 24%
    19:00 +40°C° 0.5 mm 2 mps 740 mmHg 28%
    20:00 +39°C° 0.5 mm 3 mps 741 mmHg 32%
    21:00 +37°C° 0.5 mm 4 mps 741 mmHg 37%
    22:00 +37°C° 0.2 mm 4 mps 741 mmHg 42%
    23:00 +36°C° 0.2 mm 5 mps 742 mmHg 48%

    Day after tomorrow, 25 May, Thursday

    Time Temperature Precipitation Wind Pressure Humidity
    00:00 +35°C° 0.2 mm 5 mps 742 mmHg 53%
    01:00 +34°C° 0 mm 5 mps 742 mmHg 55%
    02:00 +34°C° 0 mm 4 mps 741 mmHg 57%
    03:00 +33°C° 0 mm 4 mps 741 mmHg 58%
    04:00 +33°C° 0 mm 3 mps 741 mmHg 59%
    05:00 +33°C° 0 mm 3 mps 742 mmHg 60%
    06:00 +32°C° 0 mm 2 mps 742 mmHg 60%
    07:00 +34°C° 0 mm 3 mps 743 mmHg 56%
    08:00 +35°C° 0 mm 4 mps 743 mmHg 52%
    09:00 +36°C° 0 mm 4 mps 744 mmHg 48%
    10:00 +38°C° 0 mm 4 mps 744 mmHg 44%
    11:00 +39°C° 0 mm 3 mps 743 mmHg 40%
    12:00 +42°C° 0 mm 3 mps 743 mmHg 35%
    13:00 +42°C° 0 mm 3 mps 742 mmHg 35%
    14:00 +42°C° 0 mm 3 mps 741 mmHg 34%
    15:00 +41°C° 0 mm 2 mps 740 mmHg 33%
    16:00 +40°C° 0 mm 2 mps 741 mmHg 35%
    17:00 +39°C° 0 mm 2 mps 741 mmHg 37%
    18:00 +38°C° 0 mm 2 mps 741 mmHg 39%
    19:00 +38°C° 0 mm 3 mps 742 mmHg 42%
    20:00 +37°C° 0 mm 3 mps 742 mmHg 44%
    21:00 +36°C° 0 mm 4 mps 743 mmHg 47%
    22:00 +36°C° 0 mm 4 mps 743 mmHg 49%
    23:00 +35°C° 0 mm 4 mps 742 mmHg 51%

    26 May, Friday

    Time Temperature Precipitation Wind Pressure Humidity
    00:00 +35°C° 0 mm 4 mps 742 mmHg 54%
    01:00 +34°C° 0.2 mm 4 mps 742 mmHg 56%
    02:00 +33°C° 0.2 mm 3 mps 742 mmHg 58%
    03:00 +32°C° 0.2 mm 2 mps 742 mmHg 60%
    04:00 +33°C° 0.1 mm 3 mps 743 mmHg 62%
    05:00 +31°C° 0.1 mm 3 mps 743 mmHg 63%
    06:00 +31°C° 0.1 mm 3 mps 744 mmHg 64%
    07:00 +33°C° 0.1 mm 3 mps 744 mmHg 61%
    08:00 +34°C° 0.1 mm 3 mps 745 mmHg 57%
    09:00 +35°C° 0.1 mm 3 mps 746 mmHg 54%
    10:00 +36°C° 0.1 mm 3 mps 745 mmHg 49%
    11:00 +37°C° 0.1 mm 2 mps 745 mmHg 44%
    12:00 +38°C° 0.1 mm 2 mps 744 mmHg 39%
    13:00 +38°C° 0.2 mm 2 mps 743 mmHg 38%
    14:00 +38°C° 0.2 mm 2 mps 743 mmHg 37%
    15:00 +38°C° 0.2 mm 2 mps 742 mmHg 36%
    16:00 +37°C° 0 mm 2 mps 742 mmHg 37%
    17:00 +36°C° 0 mm 2 mps 742 mmHg 39%
    18:00 +36°C° 0 mm 2 mps 743 mmHg 40%
    19:00 +35°C° 0 mm 2 mps 743 mmHg 45%
    20:00 +34°C° 0 mm 2 mps 743 mmHg 49%
    21:00 +34°C° 0 mm 3 mps 743 mmHg 54%
    22:00 +32°C° 0 mm 2 mps 743 mmHg 57%
    23:00 +32°C° 0 mm 2 mps 743 mmHg 61%

    27 May, Saturday

    Time Temperature Precipitation Wind Pressure Humidity
    00:00 +31°C° 0 mm 1 mps 743 mmHg 64%
    01:00 +31°C° 0 mm 2 mps 743 mmHg 66%
    02:00 +30°C° 0 mm 2 mps 743 mmHg 67%
    03:00 +30°C° 0 mm 2 mps 743 mmHg 68%
    04:00 +30°C° 0 mm 2 mps 744 mmHg 69%
    05:00 +30°C° 0 mm 3 mps 744 mmHg 69%
    06:00 +30°C° 0 mm 3 mps 745 mmHg 69%
    07:00 +31°C° 0 mm 3 mps 745 mmHg 63%
    08:00 +33°C° 0 mm 3 mps 746 mmHg 57%
    09:00 +34°C° 0 mm 3 mps 746 mmHg 51%
    10:00 +36°C° 0 mm 3 mps 745 mmHg 47%
    11:00 +37°C° 0 mm 3 mps 745 mmHg 42%
    12:00 +38°C° 0 mm 2 mps 744 mmHg 37%
    13:00 +39°C° 0 mm 2 mps 743 mmHg 34%
    14:00 +39°C° 0 mm 2 mps 742 mmHg 31%
    15:00 +40°C° 0 mm 2 mps 742 mmHg 29%
    16:00 +39°C° 0 mm 1 mps 742 mmHg 30%
    17:00 +37°C° 0 mm 1 mps 742 mmHg 32%
    18:00 +36°C° 0 mm 1 mps 742 mmHg 33%
    19:00 +35°C° 0 mm 1 mps 742 mmHg 35%
    20:00 +34°C° 0 mm 1 mps 743 mmHg 36%
    21:00 +34°C° 0 mm 1 mps 744 mmHg 38%
    22:00 +33°C° 0 mm 1 mps 744 mmHg 41%
    23:00 +33°C° 0 mm 1 mps 744 mmHg 44%

    28 May, Sunday

    Time Temperature Precipitation Wind Pressure Humidity
    00:00 +32°C° 0 mm 1 mps 744 mmHg 46%
    01:00 +32°C° 0 mm 1 mps 744 mmHg 49%
    02:00 +31°C° 0 mm 1 mps 743 mmHg 51%
    03:00 +31°C° 0 mm 1 mps 743 mmHg 53%
    04:00 +31°C° 0 mm 1 mps 744 mmHg 54%
    05:00 +31°C° 0 mm 1 mps 744 mmHg 54%
    06:00 +31°C° 0 mm 1 mps 744 mmHg 54%
    07:00 +34°C° 0 mm 2 mps 745 mmHg 49%
    08:00 +36°C° 0 mm 2 mps 745 mmHg 44%
    09:00 +38°C° 0 mm 3 mps 745 mmHg 39%
    10:00 +40°C° 0 mm 3 mps 744 mmHg 34%
    11:00 +42°C° 0 mm 3 mps 744 mmHg 30%
    12:00 +43°C° 0 mm 2 mps 743 mmHg 26%
    13:00 +43°C° 0 mm 2 mps 742 mmHg 25%
    14:00 +43°C° 0 mm 2 mps 742 mmHg 24%
    15:00 +44°C° 0 mm 1 mps 741 mmHg 23%
    16:00 +42°C° 0 mm 1 mps 741 mmHg 25%
    17:00 +41°C° 0 mm 1 mps 741 mmHg 27%
    18:00 +40°C° 0 mm 1 mps 741 mmHg 28%
    19:00 +39°C° 0 mm 1 mps 742 mmHg 30%
    20:00 +38°C° 0 mm 2 mps 742 mmHg 32%
    21:00 +37°C° 0 mm 2 mps 743 mmHg 34%
    22:00 +37°C° 0 mm 2 mps 743 mmHg 38%
    23:00 +36°C° 0 mm 3 mps 742 mmHg 42%
    Show more